When you browse on this site, cookies collect data to enhance your experience and personalize the content and advertising you see.
Visit our Privacy Policy to learn more. By continuing to use the site, you agree to this use of cookies and data.
EN

Hourly Weather Potochyshche

Today, 14 August, Friday

Time Temperature Precipitation Wind Pressure Humidity
00:00 +18°C° 0 mm 2 mps 737 mmHg 83%
01:00 +17°C° 0 mm 2 mps 737 mmHg 85%
02:00 +15°C° 0 mm 1 mps 737 mmHg 85%
03:00 +15°C° 0 mm 1 mps 737 mmHg 87%
04:00 +15°C° 0 mm 1 mps 736 mmHg 87%
05:00 +14°C° 0 mm 1 mps 736 mmHg 88%
06:00 +13°C° 0 mm 0 mps 737 mmHg 88%
07:00 +14°C° 0 mm 0 mps 737 mmHg 89%
08:00 +16°C° 0 mm 0 mps 737 mmHg 84%
09:00 +20°C° 0 mm 1 mps 737 mmHg 80%
10:00 +22°C° 0 mm 1 mps 738 mmHg 75%
11:00 +23°C° 0 mm 2 mps 738 mmHg 68%
12:00 +24°C° 0 mm 2 mps 738 mmHg 62%
13:00 +25°C° 0 mm 2 mps 738 mmHg 61%
14:00 +25°C° 0 mm 2 mps 738 mmHg 58%
15:00 +25°C° 0 mm 2 mps 737 mmHg 58%
16:00 +25°C° 0 mm 3 mps 737 mmHg 59%
17:00 +25°C° 0 mm 3 mps 737 mmHg 59%
18:00 +24°C° 0 mm 3 mps 737 mmHg 61%
19:00 +23°C° 0 mm 2 mps 736 mmHg 69%
20:00 +21°C° 0 mm 2 mps 736 mmHg 74%
21:00 +19°C° 0 mm 2 mps 736 mmHg 84%
22:00 +19°C° 0 mm 2 mps 737 mmHg 87%
23:00 +18°C° 0 mm 3 mps 737 mmHg 91%

Tomorrow, 15 August, Saturday

Time Temperature Precipitation Wind Pressure Humidity
00:00 +17°C° 0 mm 3 mps 737 mmHg 92%
01:00 +17°C° 0 mm 3 mps 737 mmHg 94%
02:00 +16°C° 0 mm 3 mps 736 mmHg 95%
03:00 +16°C° 0 mm 3 mps 736 mmHg 97%
04:00 +14°C° 0 mm 3 mps 736 mmHg 97%
05:00 +14°C° 0 mm 3 mps 736 mmHg 98%
06:00 +14°C° 0 mm 3 mps 736 mmHg 98%
07:00 +16°C° 0 mm 3 mps 736 mmHg 94%
08:00 +17°C° 0 mm 4 mps 736 mmHg 92%
09:00 +18°C° 0 mm 4 mps 736 mmHg 90%
10:00 +19°C° 0 mm 4 mps 737 mmHg 89%
11:00 +20°C° 0 mm 5 mps 736 mmHg 88%
12:00 +22°C° 0 mm 6 mps 736 mmHg 85%
13:00 +23°C° 0 mm 6 mps 736 mmHg 80%
14:00 +24°C° 0 mm 6 mps 736 mmHg 75%
15:00 +26°C° 0 mm 7 mps 735 mmHg 71%
16:00 +26°C° 0 mm 7 mps 735 mmHg 71%
17:00 +24°C° 0 mm 6 mps 735 mmHg 72%
18:00 +23°C° 0 mm 6 mps 735 mmHg 75%
19:00 +23°C° 0 mm 6 mps 735 mmHg 79%
20:00 +21°C° 0 mm 5 mps 735 mmHg 85%
21:00 +20°C° 0 mm 5 mps 735 mmHg 89%
22:00 +20°C° 0 mm 5 mps 735 mmHg 90%
23:00 +20°C° 0 mm 5 mps 735 mmHg 90%

Day after tomorrow, 16 August, Sunday

Time Temperature Precipitation Wind Pressure Humidity
00:00 +20°C° 0 mm 5 mps 735 mmHg 91%
01:00 +19°C° 0 mm 5 mps 735 mmHg 94%
02:00 +19°C° 0 mm 5 mps 735 mmHg 96%
03:00 +19°C° 0 mm 6 mps 735 mmHg 98%
04:00 +17°C° 0.5 mm 5 mps 735 mmHg 99%
05:00 +17°C° 1.2 mm 4 mps 735 mmHg 100%
06:00 +17°C° 0.8 mm 4 mps 735 mmHg 100%
07:00 +17°C° 0.1 mm 4 mps 736 mmHg 97%
08:00 +18°C° 0 mm 4 mps 736 mmHg 96%
09:00 +18°C° 0 mm 4 mps 736 mmHg 95%
10:00 +18°C° 0 mm 4 mps 737 mmHg 92%
11:00 +18°C° 0 mm 4 mps 737 mmHg 94%
12:00 +19°C° 0 mm 4 mps 737 mmHg 93%
13:00 +20°C° 0 mm 4 mps 737 mmHg 86%
14:00 +21°C° 0 mm 5 mps 737 mmHg 75%
15:00 +21°C° 0 mm 5 mps 737 mmHg 73%
16:00 +22°C° 0 mm 4 mps 736 mmHg 76%
17:00 +23°C° 0 mm 4 mps 737 mmHg 77%
18:00 +24°C° 0 mm 3 mps 736 mmHg 79%
19:00 +21°C° 0 mm 6 mps 736 mmHg 89%
20:00 +20°C° 0 mm 2 mps 736 mmHg 91%
21:00 +19°C° 0 mm 2 mps 737 mmHg 94%
22:00 +19°C° 0 mm 2 mps 737 mmHg 97%
23:00 +19°C° 0 mm 2 mps 737 mmHg 97%

17 August, Monday

Time Temperature Precipitation Wind Pressure Humidity
00:00 +18°C° 0 mm 2 mps 737 mmHg 97%
01:00 +18°C° 0 mm 3 mps 737 mmHg 97%
02:00 +18°C° 0 mm 3 mps 737 mmHg 98%
03:00 +17°C° 0 mm 3 mps 736 mmHg 99%
04:00 +17°C° 0 mm 3 mps 736 mmHg 100%
05:00 +17°C° 0 mm 3 mps 736 mmHg 100%
06:00 +17°C° 0 mm 3 mps 736 mmHg 99%
07:00 +18°C° 0 mm 4 mps 736 mmHg 98%
08:00 +17°C° 0 mm 5 mps 736 mmHg 96%
09:00 +19°C° 0 mm 4 mps 736 mmHg 96%
10:00 +20°C° 0 mm 4 mps 736 mmHg 93%
11:00 +23°C° 0 mm 6 mps 736 mmHg 85%
12:00 +23°C° 0 mm 6 mps 736 mmHg 78%
13:00 +23°C° 0 mm 6 mps 736 mmHg 79%
14:00 +24°C° 0 mm 6 mps 736 mmHg 80%
15:00 +24°C° 0 mm 6 mps 735 mmHg 82%
16:00 +24°C° 0 mm 6 mps 735 mmHg 81%
17:00 +25°C° 0 mm 5 mps 735 mmHg 83%
18:00 +23°C° 0 mm 5 mps 734 mmHg 87%
19:00 +22°C° 0 mm 5 mps 734 mmHg 91%
20:00 +21°C° 0 mm 4 mps 734 mmHg 95%
21:00 +21°C° 0 mm 4 mps 734 mmHg 95%
22:00 +21°C° 0 mm 4 mps 733 mmHg 96%
23:00 +20°C° 0 mm 3 mps 733 mmHg 97%

18 August, Tuesday

Time Temperature Precipitation Wind Pressure Humidity
00:00 +20°C° 0 mm 3 mps 733 mmHg 99%
01:00 +19°C° 0 mm 2 mps 732 mmHg 100%
02:00 +19°C° 0 mm 2 mps 732 mmHg 100%
03:00 +20°C° 0 mm 1 mps 732 mmHg 99%
04:00 +20°C° 0 mm 1 mps 732 mmHg 98%
05:00 +20°C° 0 mm 1 mps 732 mmHg 98%
06:00 +20°C° 0 mm 1 mps 731 mmHg 97%
07:00 +20°C° 0 mm 1 mps 732 mmHg 97%
08:00 +21°C° 0 mm 1 mps 732 mmHg 96%
09:00 +21°C° 0 mm 1 mps 732 mmHg 96%
10:00 +22°C° 0 mm 1 mps 732 mmHg 97%
11:00 +21°C° 0 mm 0 mps 732 mmHg 95%
12:00 +23°C° 0 mm 0 mps 732 mmHg 84%
13:00 +26°C° 0 mm 1 mps 731 mmHg 85%
14:00 +27°C° 0 mm 2 mps 731 mmHg 83%
15:00 +27°C° 0 mm 1 mps 730 mmHg 79%
16:00 +28°C° 0 mm 2 mps 730 mmHg 81%
17:00 +28°C° 0 mm 1 mps 730 mmHg 78%
18:00 +25°C° 0 mm 0 mps 730 mmHg 82%
19:00 +26°C° 0 mm 1 mps 729 mmHg 92%
20:00 +24°C° 0 mm 0 mps 729 mmHg 88%
21:00 +21°C° 5.5 mm 3 mps 730 mmHg 91%
22:00 +21°C° 3.8 mm 2 mps 729 mmHg 92%
23:00 +22°C° 0 mm 1 mps 729 mmHg 90%

19 August, Wednesday

Time Temperature Precipitation Wind Pressure Humidity
00:00 +21°C° 0 mm 2 mps 729 mmHg 94%
01:00 +21°C° 0 mm 1 mps 728 mmHg 98%
02:00 +21°C° 0 mm 1 mps 728 mmHg 99%
03:00 +21°C° 0 mm 1 mps 728 mmHg 98%
04:00 +21°C° 0 mm 1 mps 728 mmHg 97%
05:00 +21°C° 0 mm 1 mps 728 mmHg 96%
06:00 +19°C° 0 mm 2 mps 728 mmHg 96%
07:00 +20°C° 0 mm 3 mps 728 mmHg 96%
08:00 +20°C° 0 mm 4 mps 728 mmHg 97%
09:00 +21°C° 0 mm 4 mps 728 mmHg 96%
10:00 +21°C° 0 mm 4 mps 729 mmHg 96%
11:00 +22°C° 0 mm 5 mps 729 mmHg 94%
12:00 +21°C° 0 mm 5 mps 729 mmHg 94%
13:00 +21°C° 0 mm 5 mps 728 mmHg 94%
14:00 +22°C° 0 mm 5 mps 728 mmHg 90%
15:00 +23°C° 0 mm 5 mps 728 mmHg 88%
16:00 +23°C° 0 mm 5 mps 728 mmHg 88%
17:00 +23°C° 0 mm 5 mps 728 mmHg 87%
18:00 +22°C° 0 mm 5 mps 728 mmHg 89%
19:00 +21°C° 0 mm 4 mps 728 mmHg 92%
20:00 +21°C° 0 mm 4 mps 728 mmHg 93%
21:00 +20°C° 0 mm 4 mps 728 mmHg 94%
22:00 +19°C° 0 mm 5 mps 728 mmHg 95%
23:00 +19°C° 0 mm 5 mps 729 mmHg 95%
Show more